Flag for U.S.A. Weather past 2 weeks in Warminster Township, Pennsylvania, U.S.A.

Now
26 °F

Ice fog.


Feels Like: 21 °F
Forecast: 22 / 35 °F
Wind: 5 mph from West

Location: Doylestown Airport

Current Time: Mar 2, 2015 at 3:22:35 AM

Latest Report: Mar 2, 2015 at 2:54 AM


Visibility: 3 mi

Pressure: 30.11 "Hg

Humidity: 100%

Dew point: 26 °F

Location of Warminster TownshipLocation

Historic Weather in Warminster Township — Graph

°F

Warminster Township temperature yesterday

Maximum temperature yesterday: 28 °F (at 7:54 PM)
Minimum temperature yesterday: 11 °F (at 2:54 AM)
Average temperature yesterday: 22 °F

Past Weeks' High & Low Weather Summary

 TemperatureHumidityPressure
High42 °F (Feb 22, 2:54 PM)100% (Feb 21, 6:54 PM)30.85 "Hg (Feb 21, 6:54 PM)
Low-3 °F (Feb 20, 6:54 AM)25% (Feb 28, 3:54 PM)29.58 "Hg (Feb 15, 1:01 AM)
Average17 °F62%30.19 "Hg
* Reported Feb 15 1:01 AM — Mar 2 1:54 AM, Warminster Township, Weather by CustomWeather, © 2015

Note: Actual official high and low records may vary slightly from our data, if they occured in-between our weather recording intervals... More about our weather records

Advertising

Warminster Township weather history for previous 24 hours

 ConditionsComfort  
Time TempWeatherWind HumidityBarometerVisibility
1:54 AM
Mon, Mar 2
26 °FIce fog.No wind100%30.12 "Hg3 mi
12:54 AM25 °FIce fog.No wind100%30.14 "Hg6 mi
11:54 PM
Sun, Mar 1
25 °FIce fog.No wind100%30.14 "Hg5 mi
10:54 PM26 °FIce fog.No wind100%30.20 "Hg6 mi
9:54 PM28 °FIce fog.5 mph100%30.22 "Hg6 mi
8:54 PM28 °FLow clouds.No wind100%30.24 "Hg8 mi
7:54 PM28 °FLight freezing rain. Ice fog.No wind100%30.29 "Hg5 mi
6:54 PM27 °FLight freezing rain. Ice fog.No wind100%30.31 "Hg6 mi
5:54 PM26 °FLight freezing rain. Ice fog.No wind100%30.34 "Hg6 mi
4:54 PM25 °FLight snow. Ice fog.No wind100%30.38 "Hg4 mi
3:54 PM24 °FLight freezing rain. Ice fog.No wind96%30.40 "Hg4 mi
2:54 PM23 °FLight snow. Ice fog.No wind92%30.44 "Hg3 mi
1:54 PM22 °FLight snow. Ice fog.5 mph92%30.49 "Hg1 mi
12:54 PM22 °FLight snow. Ice fog.3 mph92%30.55 "Hg1 mi
11:54 AM22 °FLight snow. Ice fog.6 mph92%30.58 "Hg1 mi
10:54 AM26 °FOvercast.8 mph48%30.61 "Hg10 mi
9:54 AM23 °FMostly cloudy.6 mph55%30.62 "Hg10 mi
8:54 AM21 °FOvercast.5 mph52%30.62 "Hg10 mi
7:54 AM20 °FMostly cloudy.3 mph68%30.65 "Hg10 mi
6:54 AM18 °FOvercast.No wind71%30.66 "Hg10 mi
5:54 AM18 °FOvercast.No wind62%30.66 "Hg10 mi
4:54 AM17 °FOvercast.No wind64%30.69 "Hg10 mi
3:54 AM14 °FOvercast.No wind73%30.69 "Hg10 mi
Weather by CustomWeather, © 2015

See weather overviewHow to use our weather pages